, AK

(GMT )
Cape Newenham

Weather History for PAEH - February, 2013

Change the Weather History Date:

Thursday, February 14, 2013

  Actual Average Record
Temperature  
Mean Temperature 4 °F -  
Max Temperature 7 °F 27 °F 39 °F (2006)
Min Temperature 0 °F 19 °F -6 °F (2014)
Degree Days  
Heating Degree Days 62    
Moisture  
Dew Point 0 °F    
Average Humidity 89    
Maximum Humidity 92    
Minimum Humidity 85    
Precipitation  
Precipitation 0.00 in - - ()
Sea Level Pressure  
Sea Level Pressure 29.72 in    
Wind  
Wind Speed 24 mph (NNW)    
Max Wind Speed 30 mph    
Max Gust Speed 36 mph    
Visibility 6 miles    
Events Snow    
Averages and records for this station are not official NWS values.
T = Trace of Precipitation, MM = Missing Value Source: NWS Daily Summary

Daily Weather History Graph

Daily Weather History Graph

Search for Another Location

Airport or City:

Trip Planner

Search our weather history database for the weather conditions in past years. The results will help you decide how hot, cold, wet, or windy it might be!

Date:

Astronomy

Feb. 14, 2013 Rise Set
Actual Time 9:22 AM AKST 6:43 PM AKST
Civil Twilight 8:40 AM AKST 7:25 PM AKST
Nautical Twilight 7:53 AM AKST 8:12 PM AKST
Astronomical Twilight 7:07 AM AKST 8:58 PM AKST
Moon 10:13 AM AKST (2/14) 12:09 AM AKST (2/14)
Length of Visible Light 10h 44m
Length of Day
9h 20m
Waxing Crescent, 23% of the Moon is Illuminated
Feb 14
Waxing Crescent
Feb 17
First Quarter
Feb 25
Full
Mar 4
Last Quarter
Mar 11
New

Hourly Weather History & Observations

Time (AKST) Temp. Windchill Dew Point Humidity Pressure Visibility Wind Dir Wind Speed Gust Speed Precip Events Conditions
12:08 AM 6.8 °F -14.7 °F 5.0 °F 92% 29.57 in 4.0 mi North 24.2 mph - N/A Snow Light Snow
12:55 AM 7.0 °F -14.0 °F 5.0 °F 92% 29.56 in 5.0 mi North 23.0 mph - N/A Snow Light Snow
1:55 AM 6.1 °F -16.5 °F 4.3 °F 92% 29.56 in 3.0 mi North 26.5 mph - N/A Snow Light Snow
2:28 AM 5.0 °F -17.1 °F 3.2 °F 92% 29.56 in 4.0 mi North 24.2 mph - N/A Snow Light Snow
2:55 AM 5.4 °F -17.4 °F 3.0 °F 90% 29.56 in 4.0 mi North 26.5 mph - N/A Snow Light Snow
3:28 AM 5.0 °F -17.5 °F 3.2 °F 92% 29.57 in 4.0 mi North 25.3 mph - N/A Snow Light Snow
3:55 AM 4.5 °F -18.6 °F 2.5 °F 91% 29.57 in 5.0 mi NNW 26.5 mph - N/A Snow Light Snow
4:28 AM 5.0 °F -16.7 °F 3.2 °F 92% 29.57 in 5.0 mi North 23.0 mph - N/A Snow Light Snow
4:48 AM 5.0 °F -17.5 °F 3.2 °F 92% 29.58 in 5.0 mi North 25.3 mph - N/A Snow Light Snow
4:55 AM 4.6 °F -17.1 °F 2.7 °F 91% 29.58 in 4.0 mi North 23.0 mph - N/A Snow Light Snow
5:55 AM 4.5 °F -19.0 °F 2.3 °F 91% 29.56 in 4.0 mi North 27.6 mph - N/A Snow Light Snow
6:55 AM 2.7 °F -21.5 °F 0.3 °F 90% 29.57 in 4.0 mi North 27.6 mph - N/A Snow Light Snow Showers
7:28 AM 1.4 °F -23.9 °F -0.4 °F 92% 29.58 in 3.0 mi North 29.9 mph 35.7 mph N/A Snow Light Snow Showers
7:55 AM 1.9 °F -22.4 °F -0.6 °F 89% 29.59 in 3.0 mi North 27.6 mph - N/A Snow Light Snow Showers
8:28 AM 1.4 °F -23.2 °F -0.4 °F 92% 29.60 in 2.5 mi North 27.6 mph - N/A Snow Light Snow
8:48 AM 1.4 °F -23.5 °F -0.4 °F 92% 29.61 in 4.0 mi North 28.8 mph 34.5 mph N/A Snow Light Snow
8:55 AM 1.4 °F -23.9 °F -1.1 °F 89% 29.61 in 3.0 mi North 29.9 mph 34.5 mph N/A Snow Light Snow
9:08 AM 1.4 °F -23.2 °F -0.4 °F 92% 29.62 in 2.5 mi North 27.6 mph 34.5 mph N/A Snow Light Snow
9:48 AM -0.4 °F -25.6 °F -2.2 °F 92% 29.64 in 1.8 mi North 27.6 mph - N/A Snow Light Snow
9:55 AM -0.0 °F -24.7 °F -2.6 °F 89% 29.64 in 2.0 mi North 26.5 mph - N/A Snow Light Snow
10:28 AM -0.4 °F -24.7 °F -2.2 °F 92% 29.65 in 1.8 mi North 25.3 mph - N/A   Overcast
10:55 AM 0.7 °F -24.1 °F -1.8 °F 89% 29.65 in 1.8 mi North 27.6 mph - N/A   Overcast
11:55 AM 1.2 °F -23.4 °F -1.1 °F 90% 29.68 in - North 27.6 mph 32.2 mph N/A   Mostly Cloudy
12:28 PM 1.4 °F -22.3 °F -0.4 °F 92% 29.70 in 6.0 mi North 25.3 mph 31.1 mph N/A   Mostly Cloudy
12:55 PM 1.2 °F -23.4 °F -1.3 °F 89% 29.70 in 5.0 mi North 27.6 mph 33.4 mph N/A   Mostly Cloudy
1:48 PM 1.4 °F -22.7 °F -0.4 °F 92% 29.73 in 5.0 mi NNW 26.5 mph 33.4 mph N/A   Mostly Cloudy
1:55 PM 1.9 °F -22.4 °F -0.4 °F 90% 29.74 in 4.0 mi NNW 27.6 mph 33.4 mph N/A   Mostly Cloudy
2:08 PM 1.4 °F -22.7 °F -0.4 °F 92% 29.74 in 2.5 mi North 26.5 mph - N/A   Overcast
2:28 PM 1.4 °F -23.2 °F -0.4 °F 92% 29.75 in 3.0 mi NNW 27.6 mph - N/A   Overcast
2:55 PM 2.1 °F -21.8 °F -0.6 °F 88% 29.76 in 4.0 mi NNW 26.5 mph - N/A   Overcast
3:48 PM 1.4 °F -22.3 °F -0.4 °F 92% 29.78 in 4.0 mi NNW 25.3 mph 31.1 mph N/A   Mostly Cloudy
3:55 PM 1.9 °F -21.6 °F -0.8 °F 88% 29.78 in 5.0 mi NNW 25.3 mph - N/A   Mostly Cloudy
4:28 PM 1.4 °F -20.5 °F -0.4 °F 92% 29.80 in 5.0 mi NNW 20.7 mph - N/A   Mostly Cloudy
4:55 PM 1.6 °F -20.2 °F -0.9 °F 89% 29.82 in 9.0 mi North 20.7 mph - N/A   Mostly Cloudy
5:48 PM 1.4 °F -21.4 °F -2.2 °F 85% 29.85 in 10.0 mi NNW 23.0 mph 28.8 mph N/A   Mostly Cloudy
5:55 PM 1.2 °F -20.2 °F -2.0 °F 86% 29.86 in 10.0 mi North 19.6 mph - N/A   Mostly Cloudy
6:55 PM 1.8 °F -20.0 °F -1.5 °F 86% 29.88 in 10.0 mi NNW 20.7 mph - N/A   Mostly Cloudy
7:55 PM 2.1 °F -17.9 °F -0.9 °F 87% 29.90 in 10.0 mi NNW 17.3 mph - N/A   Mostly Cloudy
8:29 PM 3.2 °F -18.1 °F -0.4 °F 85% 29.91 in 10.0 mi North 20.7 mph - N/A Snow Light Snow
8:55 PM 3.0 °F -16.1 °F -0.0 °F 87% 29.92 in 7.0 mi NNW 16.1 mph - N/A Snow Light Snow
9:49 PM 3.2 °F -16.5 °F -0.4 °F 85% 29.94 in 10.0 mi NW 17.3 mph - N/A   Mostly Cloudy
9:55 PM 2.8 °F -17.0 °F -0.8 °F 85% 29.94 in 10.0 mi NW 17.3 mph - N/A   Mostly Cloudy
10:49 PM 3.2 °F -17.1 °F -0.4 °F 85% 29.97 in 10.0 mi NW 18.4 mph - N/A Snow Light Snow Showers
10:55 PM 2.3 °F -17.1 °F -1.1 °F 86% 29.98 in 10.0 mi NW 16.1 mph - N/A   Overcast
11:09 PM 1.4 °F -16.9 °F -2.2 °F 85% 29.98 in 10.0 mi NW 13.8 mph - N/A Snow Light Snow Showers
11:29 PM 1.4 °F -17.6 °F -2.2 °F 85% 29.99 in 10.0 mi NNW 15.0 mph - N/A   Overcast
11:55 PM 1.4 °F -17.6 °F -2.2 °F 85% 29.92 in 10.0 mi NW 15.0 mph - N/A   Overcast